« Back
NWS Peachtree City, Ga » Text Product » GA Regional Weather Roundup


Printer-friendly Version
Current Version              Previous Versions:   1  2  3  4  5  6  7  8  9  

Regional Weather Roundup

846
ASUS42 KFFC 020610
RWRGA
WEATHER ROUNDUP FOR GEORGIA
NATIONAL WEATHER SERVICE PEACHTREE CITY GA
200 AM EDT SUN AUG 02 2015

NOTE: "FAIR" INDICATES FEW OR NO CLOUDS BELOW 12,000 FEET WITH NO
SIGNIFICANT WEATHER AND/OR OBSTRUCTIONS TO VISIBILITY.

* = USE WITH CAUTION. THE STATIONS MARKED WITH AN ASTERISK MAY NOT
REPORT WEATHER SUCH AS PRECIPITATION, FOG, OR THUNDER AND ARE NOT
QUALITY CONTROLLED BY NWS.

THE REMARK "TC" DENOTES TEMPERATURE READING IN DEGREES CELSIUS.

GAZ001>058-020700-
NORTH GEORGIA

CITY           SKY/WX    TMP DP  RH WIND       PRES   REMARKS
ATLANTA        CLEAR     80  59  48 N8        29.95F
6HR MIN TEMP:  77; 6HR MAX TEMP:  86;

ATHENS         PTCLDY    76  63  64 CALM      29.94F
6HR MIN TEMP:  74; 6HR MAX TEMP:  86;

CHAMBLEE       CLEAR     73  62  68 CALM      29.95F
6HR MIN TEMP:  72; 6HR MAX TEMP:  89;

PEACHTREE CITY CLEAR     71  69  93 CALM      29.94F
6HR MIN TEMP:  71; 6HR MAX TEMP:  87;

ROME           CLEAR     68  63  84 N3        29.95S
6HR MIN TEMP:  67; 6HR MAX TEMP:  87;

WEST ATLANTA   CLEAR     75  61  61 CALM      29.94F
6HR MIN TEMP:  70; 6HR MAX TEMP:  88;

GAINESVILLE    CLEAR     71  60  68 CALM      29.99F
6HR MIN TEMP:  71; 6HR MAX TEMP:  88;

CARTERSVILLE   CLEAR     63  61  93 CALM      29.96F
6HR MIN TEMP:  63; 6HR MAX TEMP:  86;



CITY           SKY/WX    TMP DP  RH WIND       PRES   REMARKS
DALTON*        CLEAR     66  66 100 CALM      29.97S
MARIETTA       CLEAR     72  62  68 NW1       29.96F
BLAIRSVILLE*     N/A     61  53  75 CALM      30.04S
$$

GAZ059>098-102>109-020700-
CENTRAL GEORGIA

CITY           SKY/WX    TMP DP  RH WIND       PRES   REMARKS
AUGUSTA-BUSH   CLEAR     74  72  93 CALM      29.91F
6HR MIN TEMP:  73; 6HR MAX TEMP:  83;

AUGUSTA-DANIEL CLEAR     76  72  87 E5        29.93F
6HR MIN TEMP:  76; 6HR MAX TEMP:  85;

COLUMBUS       CLEAR     76  71  85 CALM      29.89F
6HR MIN TEMP:  75; 6HR MAX TEMP:  79;

MACON          CLEAR     75  72  90 SE5       29.91F
6HR MIN TEMP:  75; 6HR MAX TEMP:  86;

ROBINS AFB     CLEAR     74  73  93 E3        29.90F


CITY           SKY/WX    TMP DP  RH WIND       PRES   REMARKS
LAGRANGE*      CLEAR     75  75 100 CALM      29.93F
SYLVANIA*      CLEAR     76  76 100 CALM      29.92S FOG
MILLEDGEVILLE* CLEAR     73  70  88 CALM      29.92S
$$

GAZ099>101-110>166-020700-
SOUTH GEORGIA

CITY           SKY/WX    TMP DP  RH WIND       PRES   REMARKS
SAVANNAH       PTCLDY    78  74  87 S5        29.92S
6HR MIN TEMP:  76; 6HR MAX TEMP:  80; 6HR PCP: TRACE;

VALDOSTA       CLOUDY    76  75  97 VRB3      29.88F
6HR MIN TEMP:  76; 6HR MAX TEMP:  82;

ALMA           CLOUDY    77  75  93 CALM      29.89F
6HR MIN TEMP:  74; 6HR MAX TEMP:  81; 6HR PCP: TRACE;

ST SIMONS      CLOUDY    79  74  84 SW8       29.91S
6HR MIN TEMP:  79; 6HR MAX TEMP:  82;

ALBANY         CLEAR     75  73  93 NE5       29.89F
HUNTER AFB     CLEAR     78  77  98 S3        29.89S
MOODY AFB      CLOUDY    76  74  92 E5        29.87F
BRUNSWICK      CLOUDY    79  73  83 SW7       29.93S


CITY           SKY/WX    TMP DP  RH WIND       PRES   REMARKS
BAINBRIDGE*    CLOUDY    75  73  94 CALM      29.86R
MOULTRIE*      CLEAR     73  72  94 CALM      29.88F
VIDALIA*       MOCLDY    73  72  94 E3        29.91F
WAYCROSS*      CLOUDY    80  78  95 S5        29.90S
DOUGLAS*       CLOUDY    77  75  94 CALM      29.91F
$$



USA.gov is the U.S. government's official web portal to all federal, state and local government web resources and services.